Theta_e
332 333 339 341 342 343 346 348 350 349 350 350 350 348 347 343 345 347 345 344 342 333
331 331 335 340 344 343 348 348 347 348 348 350 349 349 348 342 343 344 345 343 331 325
325 331 336 338 340 342 344 347 346 348 347 347 347 348 347 345 344 343 337 328 323 319
325 328 330 333 335 339 342 344 344 346 346 345 345 345 344 341 335 330 323 322 316 314
325 328 329 329 334 336 339 342 345 346 343 345 344 343 332 330 329 324 319 316 313 312
320 325 328 328 332 336 335 340 344 342 343 334 336 332 328 326 324 321 318 314 311 310
311 325 327 329 330 333 336 336 339 340 332 326 322 319 315 312 313 311 308 308 306 305
314 323 325 326 327 331 334 335 337 333 327 324 319 314 311 308 306 306 303 303 304 304
315 320 321 322 325 328 331 335 332 329 324 318 317 308 309 309 305 304 302 301 302 303
311 316 317 319 322 325 330 335 329 323 318 312 308 303 304 305 304 302 301 299 297 297
310 315 317 317 320 328 326 323 319 312 308 306 304 302 301 302 301 300 299 298 296 295
310 313 314 315 323 318 312 310 308 306 304 302 301 300 300 301 299 299 298 298 299 299
310 315 315 318 312 310 308 306 305 303 302 302 302 298 300 301 300 297 295 295 295 297
310 316 313 310 308 306 304 303 301 301 301 301 301 300 298 297 297 295 294 294 292 293
Wind_Speed
10 8 8 8 8 7 2 2 5 9 11 13 11 12 12 8 8 10 10 8 6 6
8 10 8 10 7 5 6 5 8 11 12 13 13 13 12 10 11 12 10 7 8 7
11 9 7 5 8 10 8 9 9 8 10 12 13 14 12 11 9 7 6 7 12 10
10 8 8 8 6 8 11 10 10 10 9 11 11 13 13 11 6 11 11 9 12 12
10 7 6 8 9 9 9 10 9 8 9 8 8 10 3 7 11 13 13 10 12 12
13 9 7 9 10 9 9 9 10 8 5 4 5 7 10 3 9 8 11 13 16 13
9 8 6 9 10 10 8 9 8 5 9 10 13 15 16 16 13 9 11 11 4 14
9 9 5 7 10 10 8 8 8 11 11 11 14 12 18 18 16 15 12 10 4 8
14 8 5 7 12 10 9 6 12 11 12 11 7 11 9 15 21 16 16 16 10 7
14 10 8 10 11 11 7 4 11 11 11 12 13 14 17 21 13 15 15 15 13 10
12 12 9 10 10 2 4 6 11 13 13 15 12 20 22 21 16 14 12 11 10 18
11 12 10 10 3 8 9 10 11 12 14 16 14 21 23 19 16 14 13 11 8 8
10 12 9 4 12 10 11 13 11 15 14 19 15 15 18 15 13 14 11 9 8 13
12 6 12 13 12 14 14 16 15 16 15 15 14 13 18 12 12 11 10 10 7 6
Wind_Direction
312 307 295 257 274 309 327 198 225 234 222 220 213 214 221 226 213 208 214 237 100 115
287 289 292 293 285 295 271 235 230 225 228 228 219 213 214 214 222 233 188 164 144 126
277 272 285 275 268 248 261 239 245 233 225 230 230 222 213 218 218 192 105 131 132 118
253 272 278 283 262 267 235 245 239 240 235 241 229 229 223 225 145 140 126 141 127 115
266 256 269 281 280 279 268 230 237 240 235 239 246 237 148 163 156 147 138 135 113 118
282 225 240 265 270 270 272 238 215 233 227 107 113 98 95 158 141 146 143 135 136 131
278 241 229 252 263 263 260 271 233 128 112 106 98 96 93 84 32 76 81 54 107 120
267 242 235 270 271 269 260 255 132 126 126 130 122 124 123 116 115 102 54 85 50 57
281 250 238 257 265 264 262 261 136 135 129 120 112 127 139 140 127 136 125 113 104 101
282 236 240 252 256 254 253 207 133 118 117 104 110 101 106 113 119 119 119 120 131 100
266 247 230 245 251 199 126 96 102 105 106 110 112 115 114 110 104 102 105 120 133 132
257 248 232 248 227 106 107 92 93 100 107 112 112 120 119 114 114 114 120 113 150 122
253 245 226 133 109 106 106 100 97 97 103 111 115 109 117 120 119 117 118 105 66 74
253 215 111 111 116 114 111 106 104 102 97 100 104 93 82 86 101 107 110 107 87 80